| time (UTC) | temp F | wind direction | speed MPH | gust MPH | rain 1hr in | rain 24hr in | rain mn in | humidity % | barometer mb |
| 20260831181648 | 71 | 338 | 0.0 | 0.0 | 0.00 | 0.49 | 0.00 | 70 | 1016.2 |
| 20260831181148 | 71 | 315 | 0.0 | 0.0 | 0.00 | 0.49 | 0.00 | 69 | 1016.1 |
| 20260831180648 | 72 | 0 | 1.0 | 5.0 | 0.00 | 0.49 | 0.00 | 68 | 1015.9 |
| 20260831180148 | 72 | 338 | 2.0 | 5.0 | 0.00 | 0.49 | 0.00 | 67 | 1015.9 |
| 20260831175648 | 73 | 338 | 0.0 | 3.0 | 0.00 | 0.49 | 0.00 | 66 | 1016.0 |
| 20260831175148 | 74 | 0 | 3.0 | 9.0 | 0.00 | 0.49 | 0.00 | 63 | 1015.9 |
| 20260831174648 | 74 | 0 | 4.0 | 9.0 | 0.00 | 0.49 | 0.00 | 62 | 1015.9 |
| 20260831174148 | 75 | 338 | 2.0 | 7.0 | 0.00 | 0.49 | 0.00 | 60 | 1015.8 |
| 20260831173649 | 77 | 338 | 1.0 | 3.0 | 0.00 | 0.49 | 0.00 | 57 | 1015.7 |
| 20260831173148 | 78 | 0 | 4.0 | 11.0 | 0.00 | 0.49 | 0.00 | 55 | 1015.2 |
| 20260831172648 | 79 | 338 | 5.0 | 11.0 | 0.00 | 0.49 | 0.00 | 53 | 1015.2 |
| 20260831172148 | 80 | 338 | 4.0 | 4.0 | 0.00 | 0.49 | 0.00 | 50 | 1015.3 |
| 20260831171648 | 81 | 135 | 2.0 | 4.0 | 0.00 | 0.49 | 0.00 | 50 | 1015.2 |
| 20260831170149 | 82 | 68 | 0.0 | 0.0 | 0.00 | 0.49 | 0.00 | 48 | 1014.6 |
| 20260831165649 | 82 | 68 | 0.0 | 0.0 | 0.00 | 0.49 | 0.00 | 48 | 1014.4 |
| 20260831165149 | 83 | 68 | 0.0 | 0.0 | 0.00 | 0.49 | 0.00 | 47 | 1014.4 |
| 20260831164649 | 83 | 68 | 0.0 | 0.0 | 0.00 | 0.49 | 0.00 | 47 | 1014.6 |
| 20260831164150 | 83 | 180 | 0.0 | 0.0 | 0.00 | 0.49 | 0.00 | 47 | 1014.7 |
| 20260831163649 | 84 | 180 | 0.0 | 0.0 | 0.00 | 0.49 | 0.00 | 46 | 1014.7 |
| 20260831163149 | 85 | 23 | 0.0 | 0.0 | 0.00 | 0.49 | 0.00 | 45 | 1014.7 |
| 20260831162649 | 85 | 23 | 0.0 | 0.0 | 0.00 | 0.49 | 0.00 | 44 | 1014.9 |
| 20260831162149 | 86 | 23 | 0.0 | 0.0 | 0.00 | 0.49 | 0.00 | 43 | 1014.8 |
| 20260831161649 | 87 | 23 | 0.0 | 4.0 | 0.00 | 0.49 | 0.00 | 43 | 1014.8 |
| 20260831161149 | 87 | 23 | 1.0 | 4.0 | 0.00 | 0.49 | 0.00 | 42 | 1014.9 |
| 20260831160649 | 87 | 158 | 0.0 | 0.0 | 0.00 | 0.49 | 0.00 | 43 | 1014.8 |
| 20260831155650 | 88 | 158 | 0.0 | 0.0 | 0.00 | 0.49 | 0.00 | 42 | 1014.8 |
| 20260831155149 | 88 | 158 | 0.0 | 0.0 | 0.00 | 0.49 | 0.00 | 42 | 1014.9 |
| 20260831154649 | 88 | 158 | 1.0 | 4.0 | 0.00 | 0.49 | 0.00 | 41 | 1014.8 |
| 20260831154150 | 88 | 135 | 0.0 | 4.0 | 0.00 | 0.49 | 0.00 | 41 | 1015.0 |
| 20260831153650 | 88 | 45 | 0.0 | 0.0 | 0.00 | 0.49 | 0.00 | 41 | 1014.9 |
| 20260831153150 | 89 | 45 | 0.0 | 0.0 | 0.00 | 0.49 | 0.00 | 40 | 1015.0 |
| 20260831152150 | 89 | 158 | 0.0 | 0.0 | 0.00 | 0.49 | 0.00 | 39 | 1014.9 |
| 20260831151150 | 90 | 158 | 2.0 | 4.0 | 0.00 | 0.49 | 0.00 | 39 | 1015.2 |
| 20260831150650 | 91 | 158 | 2.0 | 4.0 | 0.00 | 0.49 | 0.00 | 39 | 1015.1 |
| 20260831150150 | 92 | 158 | 1.0 | 4.0 | 0.00 | 0.49 | 0.00 | 38 | 1015.1 |
| 20260831145650 | 92 | 135 | 0.0 | 0.0 | 0.00 | 0.49 | 0.00 | 38 | 1014.9 |
| 20260831145150 | 93 | 135 | 1.0 | 3.0 | 0.00 | 0.49 | 0.00 | 36 | 1015.0 |
| 20260831144151 | 94 | 135 | 0.0 | 3.0 | 0.00 | 0.49 | 0.00 | 35 | 1015.0 |
| 20260831143650 | 95 | 135 | 0.0 | 0.0 | 0.00 | 0.49 | 0.00 | 35 | 1015.1 |
| 20260831143150 | 95 | 45 | 0.0 | 0.0 | 0.00 | 0.49 | 0.00 | 36 | 1015.1 |
| 20260831142651 | 95 | 45 | 0.0 | 0.0 | 0.00 | 0.49 | 0.00 | 35 | 1015.0 |
| 20260831142150 | 96 | 158 | 0.0 | 0.0 | 0.00 | 0.49 | 0.00 | 35 | 1015.0 |
| 20260831141650 | 96 | 180 | 0.0 | 0.0 | 0.00 | 0.49 | 0.00 | 35 | 1015.1 |
| 20260831141150 | 96 | 180 | 0.0 | 0.0 | 0.00 | 0.49 | 0.00 | 35 | 1015.0 |
| 20260831140651 | 96 | 23 | 0.0 | 2.0 | 0.00 | 0.49 | 0.00 | 34 | 1014.9 |
| 20260831140151 | 96 | 23 | 3.0 | 8.0 | 0.00 | 0.49 | 0.00 | 34 | 1015.1 |
| 20260831135650 | 96 | 23 | 3.0 | 8.0 | 0.00 | 0.49 | 0.00 | 34 | 1015.3 |
| 20260831134651 | 95 | 338 | 0.0 | 0.0 | 0.00 | 0.49 | 0.00 | 35 | 1015.4 |
| 20260831134152 | 94 | 338 | 0.0 | 0.0 | 0.00 | 0.49 | 0.00 | 35 | 1015.3 |
| 20260831133651 | 93 | 23 | 0.0 | 0.0 | 0.00 | 0.49 | 0.00 | 35 | 1015.4 |
| 20260831133152 | 93 | 23 | 1.0 | 6.0 | 0.00 | 0.49 | 0.00 | 35 | 1015.3 |
| 20260831132651 | 94 | 23 | 3.0 | 6.0 | 0.00 | 0.49 | 0.00 | 34 | 1015.5 |
| 20260831132152 | 95 | 23 | 3.0 | 5.0 | 0.00 | 0.49 | 0.00 | 34 | 1015.3 |
| 20260831131651 | 95 | 23 | 6.0 | 9.0 | 0.00 | 0.49 | 0.00 | 34 | 1015.4 |
| 20260831131151 | 96 | 23 | 4.0 | 7.0 | 0.00 | 0.49 | 0.00 | 33 | 1015.5 |
| 20260831130151 | 96 | 203 | 0.0 | 0.0 | 0.00 | 0.49 | 0.00 | 36 | 1015.5 |
| 20260831125151 | 96 | 135 | 0.0 | 0.0 | 0.00 | 0.49 | 0.00 | 37 | 1015.5 |
| 20260831124651 | 96 | 68 | 0.0 | 0.0 | 0.00 | 0.49 | 0.00 | 35 | 1015.5 |
| 20260831124152 | 96 | 23 | 1.0 | 8.0 | 0.00 | 0.49 | 0.00 | 35 | 1015.5 |
| 20260831123652 | 96 | 0 | 2.0 | 8.0 | 0.00 | 0.49 | 0.00 | 34 | 1015.6 |
| 20260831123152 | 96 | 23 | 1.0 | 6.0 | 0.00 | 0.49 | 0.00 | 34 | 1015.7 |
| 20260831122652 | 97 | 135 | 0.0 | 0.0 | 0.00 | 0.49 | 0.00 | 36 | 1015.6 |
| 20260831122151 | 96 | 23 | 0.0 | 0.0 | 0.00 | 0.49 | 0.00 | 35 | 1015.6 |
| 20260831121652 | 97 | 23 | 0.0 | 0.0 | 0.00 | 0.49 | 0.00 | 35 | 1015.7 |
| 20260831121153 | 97 | 23 | 1.0 | 4.0 | 0.00 | 0.49 | 0.00 | 37 | 1015.6 |
| 20260831120652 | 97 | 23 | 1.0 | 4.0 | 0.00 | 0.49 | 0.00 | 36 | 1015.6 |
| 20260831120152 | 97 | 23 | 0.0 | 0.0 | 0.00 | 0.49 | 0.00 | 36 | 1015.5 |
| 20260831115652 | 98 | 23 | 0.0 | 0.0 | 0.00 | 0.49 | 0.00 | 34 | 1015.6 |
| 20260831115152 | 98 | 23 | 0.0 | 0.0 | 0.00 | 0.49 | 0.00 | 36 | 1015.5 |
| 20260831114654 | 98 | 23 | 0.0 | 0.0 | 0.00 | 0.49 | 0.00 | 37 | 1015.7 |
| 20260831114152 | 97 | 23 | 2.0 | 4.0 | 0.00 | 0.49 | 0.00 | 36 | 1015.7 |
| 20260831113652 | 97 | 23 | 2.0 | 4.0 | 0.00 | 0.49 | 0.00 | 36 | 1015.7 |
| 20260831113152 | 98 | 23 | 1.0 | 3.0 | 0.00 | 0.49 | 0.00 | 37 | 1015.8 |
| 20260831112653 | 97 | 23 | 1.0 | 3.0 | 0.00 | 0.49 | 0.00 | 38 | 1015.7 |
| 20260831112152 | 97 | 23 | 0.0 | 0.0 | 0.00 | 0.49 | 0.00 | 38 | 1015.7 |
| 20260831111652 | 96 | 23 | 0.0 | 5.0 | 0.00 | 0.49 | 0.00 | 39 | 1015.7 |
| 20260831111153 | 96 | 23 | 3.0 | 5.0 | 0.00 | 0.49 | 0.00 | 38 | 1015.8 |
| 20260831110652 | 96 | 23 | 4.0 | 6.0 | 0.00 | 0.49 | 0.00 | 38 | 1015.9 |
| 20260831105652 | 95 | 23 | 4.0 | 7.0 | 0.00 | 0.49 | 0.00 | 40 | 1015.7 |
| 20260831105153 | 94 | 23 | 4.0 | 7.0 | 0.00 | 0.49 | 0.00 | 41 | 1015.8 |
| 20260831104653 | 94 | 23 | 1.0 | 4.0 | 0.00 | 0.49 | 0.00 | 43 | 1015.7 |
| 20260831104153 | 92 | 23 | 0.0 | 0.0 | 0.00 | 0.49 | 0.00 | 46 | 1015.7 |
| 20260831103653 | 91 | 23 | 2.0 | 7.0 | 0.00 | 0.49 | 0.00 | 45 | 1015.8 |
| 20260831103153 | 90 | 338 | 2.0 | 7.0 | 0.00 | 0.51 | 0.00 | 45 | 1015.7 |
| 20260831102653 | 90 | 338 | 0.0 | 0.0 | 0.00 | 0.51 | 0.00 | 47 | 1015.7 |
| 20260831102153 | 89 | 23 | 1.0 | 3.0 | 0.00 | 0.51 | 0.00 | 48 | 1015.8 |
| 20260831101653 | 89 | 23 | 0.0 | 3.0 | 0.00 | 0.51 | 0.00 | 48 | 1015.8 |
| 20260831101153 | 88 | 23 | 0.0 | 0.0 | 0.00 | 0.51 | 0.00 | 50 | 1015.6 |
| 20260831100653 | 87 | 23 | 0.0 | 0.0 | 0.00 | 0.51 | 0.00 | 50 | 1015.8 |
| 20260831100153 | 87 | 23 | 0.0 | 0.0 | 0.00 | 0.51 | 0.00 | 50 | 1016.0 |
| 20260831095653 | 86 | 23 | 0.0 | 0.0 | 0.00 | 0.51 | 0.00 | 51 | 1016.2 |
| 20260831095153 | 86 | 23 | 0.0 | 4.0 | 0.00 | 0.51 | 0.00 | 52 | 1016.2 |
| 20260831094653 | 85 | 23 | 1.0 | 4.0 | 0.00 | 0.51 | 0.00 | 52 | 1016.2 |
| 20260831094153 | 85 | 23 | 0.0 | 0.0 | 0.00 | 0.51 | 0.00 | 53 | 1016.2 |
| 20260831093653 | 85 | 23 | 0.0 | 0.0 | 0.00 | 0.51 | 0.00 | 53 | 1016.2 |
| 20260831093153 | 85 | 23 | 0.0 | 0.0 | 0.00 | 0.51 | 0.00 | 54 | 1016.3 |
| 20260831092653 | 85 | 23 | 0.0 | 0.0 | 0.00 | 0.51 | 0.00 | 55 | 1016.4 |
| 20260831092154 | 84 | 23 | 0.0 | 5.0 | 0.00 | 0.51 | 0.00 | 55 | 1016.3 |
| 20260831091654 | 84 | 0 | 3.0 | 5.0 | 0.00 | 0.51 | 0.00 | 55 | 1016.5 |
| 20260831090654 | 83 | 23 | 4.0 | 7.0 | 0.00 | 0.51 | 0.00 | 56 | 1016.3 |
| 20260831090155 | 83 | 23 | 3.0 | 7.0 | 0.00 | 0.51 | 0.00 | 57 | 1016.4 |
| 20260831085654 | 83 | 23 | 3.0 | 6.0 | 0.00 | 0.51 | 0.00 | 57 | 1016.5 |
| 20260831085154 | 83 | 23 | 2.0 | 6.0 | 0.00 | 0.51 | 0.00 | 57 | 1016.6 |
| 20260831084654 | 83 | 23 | 0.0 | 2.0 | 0.00 | 0.51 | 0.00 | 58 | 1016.4 |
| 20260831083654 | 83 | 23 | 1.0 | 4.0 | 0.00 | 0.51 | 0.00 | 59 | 1016.5 |
| 20260831082654 | 82 | 23 | 0.0 | 0.0 | 0.00 | 0.59 | 0.00 | 59 | 1016.3 |
| 20260831082154 | 83 | 23 | 1.0 | 3.0 | 0.00 | 0.59 | 0.00 | 59 | 1016.5 |
| 20260831081155 | 84 | 23 | 2.0 | 3.0 | 0.00 | 0.59 | 0.00 | 61 | 1016.3 |
| 20260831080654 | 83 | 45 | 0.0 | 3.0 | 0.00 | 0.59 | 0.00 | 63 | 1016.3 |
| 20260831075655 | 81 | 68 | 0.0 | 0.0 | 0.00 | 0.59 | 0.00 | 69 | 1016.1 |
| 20260831075155 | 80 | 68 | 0.0 | 0.0 | 0.00 | 0.59 | 0.00 | 71 | 1016.0 |
| 20260831074655 | 79 | 135 | 0.0 | 0.0 | 0.02 | 0.59 | 0.00 | 75 | 1016.1 |
| 20260831074155 | 77 | 135 | 0.0 | 0.0 | 0.02 | 0.59 | 0.00 | 78 | 1016.1 |
| 20260831073655 | 76 | 135 | 0.0 | 0.0 | 0.02 | 0.59 | 0.00 | 80 | 1016.1 |
| 20260831072655 | 72 | 135 | 0.0 | 0.0 | 0.06 | 0.71 | 0.00 | 86 | 1016.1 |
| 20260831072155 | 71 | 135 | 0.0 | 0.0 | 0.06 | 0.71 | 0.00 | 87 | 1015.9 |
| 20260831071655 | 70 | 135 | 0.0 | 0.0 | 0.06 | 0.71 | 0.00 | 86 | 1015.9 |
| 20260831071155 | 69 | 135 | 0.0 | 0.0 | 0.10 | 0.71 | 0.00 | 87 | 1016.1 |
| 20260831070155 | 67 | 135 | 0.0 | 0.0 | 0.10 | 0.71 | 0.00 | 88 | 1015.9 |
| 20260831065656 | 66 | 135 | 0.0 | 0.0 | 0.12 | 0.71 | 0.00 | 89 | 1016.0 |
| 20260831065155 | 65 | 135 | 0.0 | 0.0 | 0.12 | 0.71 | 0.00 | 89 | 1016.0 |
| 20260831064727 | 65 | 135 | 0.0 | 0.0 | 0.12 | 0.69 | 0.00 | 90 | 1016.0 |
| 20260831064656 | 65 | 135 | 0.0 | 0.0 | 0.12 | 0.69 | 0.00 | 90 | 1016.0 |
| 20260831064156 | 64 | 135 | 0.0 | 0.0 | 0.12 | 0.69 | 0.00 | 89 | 1015.9 |
| 20260831063656 | 63 | 135 | 0.0 | 0.0 | 0.12 | 0.69 | 0.00 | 89 | 1016.1 |
| 20260831062655 | 62 | 135 | 0.0 | 0.0 | 0.10 | 0.65 | 0.00 | 90 | 1016.0 |
| 20260831061656 | 61 | 135 | 0.0 | 0.0 | 0.10 | 0.65 | 0.00 | 90 | 1015.9 |
| 20260831061156 | 60 | 135 | 0.0 | 0.0 | 0.06 | 0.61 | 0.00 | 90 | 1016.0 |
| 20260831060657 | 60 | 135 | 0.0 | 0.0 | 0.06 | 0.61 | 0.00 | 90 | 1015.9 |
| 20260831060156 | 60 | 135 | 0.0 | 0.0 | 0.06 | 0.61 | 0.00 | 90 | 1015.9 |
| 20260831054656 | 58 | 135 | 0.0 | 0.0 | 0.10 | 0.57 | 0.00 | 89 | 1016.1 |
| 20260831054156 | 58 | 135 | 0.0 | 0.0 | 0.10 | 0.57 | 0.00 | 89 | 1016.0 |
| 20260831053656 | 57 | 135 | 0.0 | 0.0 | 0.10 | 0.57 | 0.00 | 89 | 1016.0 |
| 20260831053156 | 57 | 135 | 0.0 | 0.0 | 0.08 | 0.55 | 0.00 | 89 | 1016.0 |
| 20260831052657 | 57 | 135 | 0.0 | 0.0 | 0.10 | 0.55 | 0.00 | 88 | 1016.0 |
| 20260831051657 | 56 | 135 | 0.0 | 0.0 | 0.16 | 0.55 | 0.00 | 88 | 1015.8 |
| 20260831050658 | 56 | 135 | 0.0 | 0.0 | 0.20 | 0.55 | 0.00 | 88 | 1016.0 |
| 20260831050202 | 56 | 135 | 0.0 | 0.0 | 0.20 | 0.55 | 0.00 | 88 | 1015.9 |
| 20260831045657 | 56 | 135 | 0.0 | 0.0 | 0.20 | 0.51 | 0.00 | 88 | 1016.2 |
| 20260831045157 | 56 | 135 | 0.0 | 0.0 | 0.26 | 0.51 | 0.00 | 88 | 1016.1 |
| 20260831044657 | 56 | 135 | 0.0 | 0.0 | 0.24 | 0.47 | 0.00 | 88 | 1015.9 |
| 20260831044157 | 56 | 135 | 0.0 | 0.0 | 0.24 | 0.47 | 0.00 | 88 | 1016.1 |
| 20260831043658 | 56 | 135 | 0.0 | 0.0 | 0.24 | 0.47 | 0.00 | 88 | 1016.1 |
| 20260831043157 | 56 | 135 | 0.0 | 0.0 | 0.22 | 0.45 | 0.00 | 88 | 1016.0 |
| 20260831042157 | 56 | 135 | 0.0 | 0.0 | 0.16 | 0.39 | 0.00 | 88 | 1016.1 |
| 20260831041657 | 56 | 135 | 0.0 | 0.0 | 0.12 | 0.35 | 0.00 | 88 | 1016.2 |
| 20260831041158 | 56 | 135 | 0.0 | 0.0 | 0.12 | 0.35 | 0.00 | 88 | 1016.1 |
| 20260831040657 | 56 | 135 | 0.0 | 0.0 | 0.12 | 0.35 | 0.00 | 88 | 1015.9 |
| 20260831040200 | 56 | 135 | 0.0 | 0.0 | 0.12 | 0.35 | 0.00 | 88 | 1016.1 |
| 20260831035158 | 56 | 135 | 0.0 | 0.0 | 0.02 | 0.24 | 0.00 | 88 | 1016.1 |
| 20260831034657 | 56 | 135 | 0.0 | 0.0 | 0.00 | 0.22 | 0.00 | 88 | 1016.0 |
| 20260831034157 | 56 | 135 | 0.0 | 0.0 | 0.00 | 0.22 | 0.00 | 88 | 1016.0 |
| 20260831033158 | 56 | 135 | 0.0 | 0.0 | 0.00 | 0.22 | 0.00 | 87 | 1016.1 |
| 20260831032657 | 57 | 135 | 0.0 | 0.0 | 0.00 | 0.22 | 0.00 | 88 | 1016.1 |
| 20260831032158 | 57 | 135 | 0.0 | 0.0 | 0.00 | 0.22 | 0.00 | 88 | 1016.1 |
| 20260831031658 | 57 | 135 | 0.0 | 0.0 | 0.00 | 0.22 | 0.00 | 88 | 1016.3 |
| 20260831031158 | 57 | 135 | 0.0 | 0.0 | 0.00 | 0.22 | 0.00 | 87 | 1016.2 |
| 20260831030659 | 57 | 135 | 0.0 | 0.0 | 0.00 | 0.22 | 0.00 | 87 | 1016.2 |
| 20260831025158 | 57 | 135 | 0.0 | 0.0 | 0.00 | 0.22 | 0.00 | 87 | 1016.2 |
| 20260831024658 | 57 | 135 | 0.0 | 0.0 | 0.00 | 0.22 | 0.00 | 87 | 1016.2 |
| 20260831024343 | 57 | 135 | 0.0 | 0.0 | 0.00 | 0.22 | 0.00 | 87 | 1016.2 |
| 20260831024159 | 57 | 135 | 0.0 | 0.0 | 0.00 | 0.22 | 0.00 | 87 | 1016.2 |
| 20260831023659 | 56 | 135 | 0.0 | 0.0 | 0.00 | 0.22 | 0.00 | 87 | 1016.1 |
| 20260831022658 | 57 | 135 | 0.0 | 0.0 | 0.00 | 0.22 | 0.00 | 86 | 1016.2 |
| 20260831022158 | 57 | 135 | 0.0 | 0.0 | 0.00 | 0.22 | 0.00 | 86 | 1016.2 |
| 20260831021658 | 57 | 135 | 0.0 | 0.0 | 0.00 | 0.22 | 0.00 | 86 | 1016.2 |
| 20260831020159 | 58 | 135 | 0.0 | 0.0 | 0.00 | 0.22 | 0.00 | 86 | 1016.3 |
| 20260831015159 | 57 | 135 | 0.0 | 0.0 | 0.00 | 0.22 | 0.00 | 86 | 1016.3 |
| 20260831014659 | 57 | 135 | 0.0 | 0.0 | 0.00 | 0.22 | 0.00 | 86 | 1016.2 |
| 20260831014159 | 58 | 135 | 0.0 | 0.0 | 0.00 | 0.22 | 0.00 | 86 | 1016.3 |
| 20260831012659 | 58 | 135 | 0.0 | 0.0 | 0.00 | 0.22 | 0.00 | 86 | 1016.4 |
| 20260831012159 | 58 | 135 | 0.0 | 0.0 | 0.00 | 0.22 | 0.00 | 86 | 1016.3 |
| 20260831005659 | 58 | 135 | 0.0 | 0.0 | 0.00 | 0.22 | 0.00 | 85 | 1016.5 |
| 20260831004659 | 58 | 135 | 0.0 | 0.0 | 0.00 | 0.22 | 0.00 | 85 | 1016.7 |
| 20260831004159 | 58 | 135 | 0.0 | 0.0 | 0.00 | 0.22 | 0.00 | 85 | 1016.6 |
| 20260831003200 | 58 | 135 | 0.0 | 0.0 | 0.00 | 0.22 | 0.00 | 85 | 1016.6 |
| 20260831002700 | 58 | 135 | 0.0 | 0.0 | 0.00 | 0.22 | 0.00 | 85 | 1016.6 |
| 20260831002200 | 58 | 135 | 0.0 | 0.0 | 0.00 | 0.22 | 0.00 | 85 | 1016.6 |
| 20260831001700 | 58 | 135 | 0.0 | 0.0 | 0.00 | 0.22 | 0.00 | 85 | 1016.6 |
| 20260831001200 | 59 | 135 | 0.0 | 0.0 | 0.00 | 0.22 | 0.00 | 85 | 1016.7 |
| 20260831000200 | 59 | 135 | 0.0 | 0.0 | 0.00 | 0.22 | 0.00 | 85 | 1016.6 |
| 20260830235700 | 59 | 135 | 0.0 | 0.0 | 0.00 | 0.22 | 0.00 | 85 | 1016.6 |
| 20260830235200 | 59 | 135 | 0.0 | 0.0 | 0.00 | 0.22 | 0.00 | 85 | 1016.8 |
| 20260830234700 | 59 | 135 | 0.0 | 0.0 | 0.00 | 0.22 | 0.00 | 85 | 1016.7 |
| 20260830234200 | 60 | 135 | 0.0 | 0.0 | 0.00 | 0.22 | 0.00 | 85 | 1016.6 |
| 20260830233200 | 60 | 135 | 0.0 | 0.0 | 0.00 | 0.24 | 0.00 | 84 | 1016.6 |
| 20260830232700 | 60 | 135 | 0.0 | 0.0 | 0.00 | 0.24 | 0.00 | 84 | 1016.7 |
| 20260830232200 | 60 | 135 | 0.0 | 0.0 | 0.00 | 0.24 | 0.00 | 84 | 1016.7 |
| 20260830231700 | 60 | 135 | 0.0 | 0.0 | 0.00 | 0.24 | 0.00 | 84 | 1016.7 |
| 20260830231200 | 60 | 135 | 0.0 | 0.0 | 0.00 | 0.24 | 0.00 | 84 | 1016.7 |
| 20260830230701 | 60 | 135 | 0.0 | 0.0 | 0.00 | 0.24 | 0.00 | 84 | 1016.9 |
| 20260830230200 | 60 | 135 | 0.0 | 0.0 | 0.00 | 0.24 | 0.00 | 84 | 1016.8 |
| 20260830225701 | 60 | 135 | 0.0 | 0.0 | 0.00 | 0.24 | 0.00 | 83 | 1016.9 |
| 20260830224701 | 60 | 135 | 0.0 | 0.0 | 0.00 | 0.24 | 0.00 | 83 | 1016.9 |
| 20260830224201 | 60 | 135 | 0.0 | 0.0 | 0.00 | 0.24 | 0.00 | 82 | 1017.0 |
| 20260830223701 | 60 | 135 | 0.0 | 0.0 | 0.00 | 0.24 | 0.00 | 82 | 1016.8 |
| 20260830223201 | 61 | 135 | 0.0 | 0.0 | 0.00 | 0.51 | 0.00 | 82 | 1017.0 |
| 20260830222701 | 61 | 135 | 0.0 | 0.0 | 0.00 | 0.51 | 0.00 | 82 | 1017.1 |
| 20260830222201 | 61 | 135 | 0.0 | 0.0 | 0.00 | 0.51 | 0.00 | 82 | 1016.8 |
| 20260830221701 | 61 | 135 | 0.0 | 0.0 | 0.00 | 0.51 | 0.00 | 82 | 1016.8 |
| 20260830221317 | 61 | 135 | 0.0 | 0.0 | 0.00 | 0.51 | 0.00 | 82 | 1016.8 |
| 20260830221201 | 61 | 135 | 0.0 | 0.0 | 0.00 | 0.51 | 0.00 | 82 | 1016.8 |
| 20260830220701 | 61 | 135 | 0.0 | 0.0 | 0.00 | 0.51 | 0.00 | 82 | 1016.8 |
| 20260830220201 | 62 | 135 | 0.0 | 0.0 | 0.00 | 0.51 | 0.00 | 82 | 1016.8 |
| 20260830215701 | 62 | 135 | 0.0 | 0.0 | 0.00 | 0.51 | 0.00 | 82 | 1016.9 |
| 20260830215201 | 62 | 135 | 0.0 | 0.0 | 0.00 | 0.51 | 0.00 | 81 | 1016.7 |
| 20260830214701 | 62 | 135 | 0.0 | 0.0 | 0.00 | 0.51 | 0.00 | 81 | 1017.0 |
| 20260830214201 | 62 | 135 | 0.0 | 0.0 | 0.00 | 0.51 | 0.00 | 81 | 1016.8 |
| 20260830213702 | 62 | 135 | 0.0 | 0.0 | 0.00 | 0.51 | 0.00 | 81 | 1016.9 |
| 20260830213202 | 62 | 135 | 0.0 | 0.0 | 0.00 | 1.18 | 0.00 | 81 | 1017.0 |
| 20260830212702 | 62 | 135 | 0.0 | 0.0 | 0.00 | 1.18 | 0.00 | 80 | 1016.9 |
| 20260830212202 | 62 | 135 | 0.0 | 0.0 | 0.00 | 1.18 | 0.00 | 80 | 1016.8 |
| 20260830211702 | 62 | 135 | 0.0 | 0.0 | 0.00 | 1.18 | 0.00 | 80 | 1016.9 |
| 20260830211202 | 63 | 135 | 0.0 | 0.0 | 0.00 | 1.18 | 0.00 | 80 | 1016.9 |
| 20260830210702 | 63 | 135 | 0.0 | 0.0 | 0.00 | 1.18 | 0.00 | 80 | 1016.8 |
| 20260830210202 | 63 | 135 | 0.0 | 0.0 | 0.00 | 1.18 | 0.00 | 79 | 1016.8 |
| 20260830205703 | 63 | 135 | 0.0 | 0.0 | 0.00 | 1.18 | 0.00 | 79 | 1016.8 |
| 20260830205203 | 63 | 135 | 0.0 | 0.0 | 0.00 | 1.18 | 0.00 | 79 | 1016.6 |
| 20260830204702 | 63 | 135 | 0.0 | 0.0 | 0.00 | 1.18 | 0.00 | 79 | 1016.8 |
| 20260830204203 | 64 | 135 | 0.0 | 0.0 | 0.00 | 1.18 | 0.00 | 78 | 1016.8 |
| 20260830202703 | 64 | 135 | 0.0 | 0.0 | 0.00 | 1.79 | 0.00 | 78 | 1016.8 |
| 20260830202202 | 64 | 135 | 0.0 | 0.0 | 0.00 | 1.79 | 0.00 | 77 | 1016.9 |
| 20260830201202 | 65 | 135 | 0.0 | 0.0 | 0.00 | 1.79 | 0.00 | 77 | 1016.7 |
| 20260830200704 | 65 | 135 | 0.0 | 0.0 | 0.00 | 1.79 | 0.00 | 76 | 1016.7 |
| 20260830200203 | 65 | 135 | 0.0 | 0.0 | 0.00 | 1.79 | 0.00 | 76 | 1016.7 |
| 20260830195704 | 65 | 135 | 0.0 | 0.0 | 0.00 | 1.79 | 0.00 | 76 | 1016.7 |
| 20260830195203 | 65 | 135 | 0.0 | 0.0 | 0.00 | 1.79 | 0.00 | 75 | 1016.6 |
| 20260830194703 | 66 | 135 | 0.0 | 0.0 | 0.00 | 1.79 | 0.00 | 75 | 1016.6 |
| 20260830193703 | 66 | 135 | 0.0 | 0.0 | 0.00 | 1.79 | 0.00 | 75 | 1016.6 |
| 20260830193203 | 66 | 135 | 0.0 | 0.0 | 0.00 | 2.49 | 0.00 | 75 | 1016.7 |
| 20260830192703 | 67 | 135 | 0.0 | 0.0 | 0.00 | 2.49 | 0.00 | 74 | 1016.7 |
| 20260830192204 | 67 | 135 | 0.0 | 0.0 | 0.00 | 2.49 | 0.00 | 74 | 1016.6 |
| 20260830191703 | 67 | 135 | 0.0 | 0.0 | 0.00 | 2.49 | 0.00 | 73 | 1016.7 |
| 20260830191204 | 67 | 135 | 0.0 | 0.0 | 0.00 | 2.49 | 0.00 | 73 | 1016.6 |
| 20260830190703 | 68 | 135 | 0.0 | 0.0 | 0.00 | 2.49 | 0.00 | 73 | 1016.5 |
| 20260830190203 | 68 | 135 | 0.0 | 0.0 | 0.00 | 2.49 | 0.00 | 72 | 1016.5 |
| 20260830185703 | 68 | 135 | 0.0 | 0.0 | 0.00 | 2.49 | 0.00 | 71 | 1016.4 |
| 20260830185204 | 69 | 135 | 0.0 | 0.0 | 0.00 | 2.49 | 0.00 | 70 | 1016.3 |
| 20260830184703 | 69 | 135 | 0.0 | 0.0 | 0.00 | 2.49 | 0.00 | 70 | 1016.4 |
| 20260830184203 | 69 | 135 | 0.0 | 0.0 | 0.00 | 2.49 | 0.00 | 70 | 1016.3 |
| 20260830183704 | 70 | 135 | 0.0 | 0.0 | 0.00 | 2.49 | 0.00 | 69 | 1016.3 |
| 20260830183204 | 70 | 135 | 0.0 | 0.0 | 0.00 | 2.75 | 0.00 | 69 | 1016.3 |
| 20260830182705 | 70 | 135 | 0.0 | 0.0 | 0.00 | 2.75 | 0.00 | 68 | 1016.1 |